STARLINK-35936, 66620

Orbit data source: Space-Track

STARLINK-35936, 66620 is a payload satellite owned by SpaceX/Seattle (US) in LEO that was launched on Sun, 23 Nov 2025 UTC via an FALCON 9 launch vehicle from the Air Force Western Test Range (AFWTR). Payload-class satellites include a variety of spacecraft equipped with specific instruments for various scientific and technological missions. These include communications satellites like Starlink; space stations such as the ISS; scientific satellites like the Hubble; Earth observation satellites from companies like Planet Labs, Umbra, and HawkEye 360; GPS; miniature CubeSats for education and research; and military/defense satellites.

Loading next visibility...
Identifier
66620, 2025-271D
Orbit
LEO
Country
Flag of USUS
Related business
Manufacturer
SpaceX/Seattle
Mission
Operational Commercial Communications
Bus & Motor
STARLINK V2MO, Unknown motor
Mass
575 kg wet, ~530 kg dry
Launch date (UTC)
2025-11-23 (5 months ago)
Launch vehicle
FALCON 9
Launch site
Air Force Western Test Range (AFWTR)
Object type
Payload
Rocket body
Debris
Shape & HBR
Box + 2 Pan, 17.7 m
Radar Cross Section
36.964 m²

Expand to show TLE details & history
Last TLE update: 1 day ago

TLE from 1 day ago
0 STARLINK-35936
1 66620U 25271D   26127.54538044  .00018997  00000-0  65181-3 0  9996
2 66620  53.1587 226.8486 0001192  68.9622 291.1506 15.30202795 26571
Epoch: 2026-05-07T13:05Z
TLE epoch observation values (Epoch: 2026-05-07T13:05:20.870Z)
Latitude
-0.00001°
Longitude
165.12165°
Altitude
475.812 km
Speed
7.629 km/s
True Right ascension
15h 07m 23s
True Declination
0° 00' 00"
Sunlit
Object was in full shadow at epoch
Visualization orbit readout
Latitude
Unknown
Longitude
Unknown
Altitude
Unknown
Speed
Unknown
Apparent Right ascension
Unknown
Apparent Declination
Unknown
Sunlit
N/A
Visualization observer readout
Local Sidereal Time
20:52:11
Azimuth
Unknown
Elevation
Unknown
Doppler factor
Unknown
Orbital elements
Apogee altitude
476.28 km
Perigee altitude
474.646 km
Semi-major axis
6,853.6 km
Eccentricity
0.00012
Inclination
53.1587°
RAAN
226.8486°
Arg. of periapsis
68.9622°
True anomaly
291.13786°
Mean anomaly
291.1506°
Eccentric anomaly
291.14423°
Mean motion
3.8253 °/min
Orbital period
94.11 mins
BSTAR
0.00065181
Loading maneuver chart data...
Computing Atmospheric mass density...
Loading historical data...
Loading historical data...
Loading historical data...
Loading historical data...
Loading historical data...
Loading historical data...
Loading historical data...

Documentation

Showing up to 5 results
|